Regional Weather Roundup
Issued by NWS Charleston, SC

Current Version | Previous Version | Graphics & Text | Print | Product List | Glossary On
Versions: 1 2 3 4 5 6 7 8 9 10 11 12 13 14 15 16 17 18 19 20 21 22 23 24 25 26 27 28 29 30 31 32 33 34 35 36 37 38 39 40 41 42 43 44 45 46 47 48 49 50
000
ASUS42 KCHS 241327
RWRCHS

REGIONAL WEATHER ROUNDUP
NATIONAL WEATHER SERVICE CHARLESTON SC
900 AM EDT WED MAY 24 2017

NOTE: "FAIR" INDICATES FEW OR NO CLOUDS BELOW 12,000 FEET WITH NO
SIGNIFICANT WEATHER AND/OR OBSTRUCTIONS TO VISIBILITY.

NOT ALL STATIONS ARE QUALITY CONTROLLED. USE DATA WITH CAUTION...
ESPECIALLY DEWPOINT OBSERVATIONS.

SCZ027-030-031-034>040-042>050-241400-
...SOUTHEAST SOUTH CAROLINA...

CITY           SKY/WX    TMP DP  RH WIND       PRES   REMARKS
N CHARLESTON   PTSUNNY   76  70  82 SW7       29.68R
WATERFRONT PRK   N/A     76  72  87 SW7G15    29.67S
JOHNS ISLAND   PTSUNNY   79  72  78 VRB7      29.70R
PINOPOLIS        N/A     73  72  94 SW10      29.60R
MONCKS CORNER  CLOUDY    72  70  94 SW10      29.69S
SUMMERVILLE    CLOUDY    72  70  94 S7        29.69S
BEAUFORT MCAS  PTSUNNY   74  73  97 SW12      29.68S
BEAUFORT ARPT  NOT AVBL
HILTON HEAD IS PTSUNNY   77  73  88 SW9       29.70S
WALTERBORO     CLOUDY    72  70  94 SW8       29.69S
ALLENDALE      CLOUDY    73  72  94 S7        29.66S

...SOUTHERN MIDLANDS AND PEE DEE...

CITY           SKY/WX    TMP DP  RH WIND       PRES   REMARKS
GEORGETOWN     CLOUDY    73  72  94 SW8       29.70S
KINGSTREE      CLOUDY   N/A N/A N/A S6        29.68R
ORANGEBURG     CLOUDY    72  69  90 S12       29.67R
BARNWELL       CLOUDY    75  72  88 SW9       29.66F
AIKEN          CLOUDY    70  68  94 S8        29.68S
MANNING        CLOUDY    72  70  94 SW24G33   29.68R
COLUMBIA       CLOUDY    72  68  87 S5        29.64S
SUMTER         CLOUDY    70  68  91 S6        29.64F
FLORENCE       CLOUDY    71  69  93 SW7       29.68R
MYRTLE BEACH   MOSUNNY   73  70  88 SW12      29.70R
N MYRTLE BEACH MOSUNNY   74  70  87 W6        29.69R

$$

GAZ063-065-086>088-099>101-113>116-118-119-134>141-150-241400-
...SOUTHEAST GEORGIA...

CITY           SKY/WX    TMP DP  RH WIND       PRES   REMARKS
SAVANNAH ARPT  CLOUDY    78  70  76 SW12      29.68S
HUNTER AAF     PTSUNNY   77  76  98 S8        29.66F
FORT STEWART   PTSUNNY   75  70  84 S6        29.66F
STATESBORO     CLOUDY    76  76 100 S6        29.67S
SYLVANIA       CLOUDY    75  73  96 SW5       29.67F
CLAXTON        FAIR      76  76 100 S7        29.67F

...CSRA...CENTRAL AND FAR SOUTHEAST GEORGIA...

CITY           SKY/WX    TMP DP  RH WIND       PRES   REMARKS
THOMSON        CLOUDY    71  69  93 W5        29.68S
AUGUSTA-BUSH   CLOUDY    75  70  84 S7        29.64S
AUGUSTA-DANIEL CLOUDY    73  67  81 S8        29.65S
SWAINSBORO     CLOUDY    73  73 100 SW7       29.66F
VIDALIA        PTSUNNY   77  72  83 S9G17     29.66F
EASTMAN        CLOUDY    75  70  84 S7        29.65F
HAZLEHURST     PTSUNNY   76  75  95 SW8       29.64F
ALMA           CLOUDY    76  71  85 S8        29.68S
WAYCROSS       CLOUDY    78  77  96 S9        29.67F
JESUP          CLOUDY    77  70  78 SW5       29.69S
BAXLEY         CLOUDY    77  77 100 S10       29.65F
BRUNSWICK      CLOUDY    79  73  83 S13       29.70F
SAINT SIMONS   CLOUDY    78  70  76 SW12      29.70F

$$

SCZ027-028-034-036>038-045-046-048>050-GAZ119-141-241400-
...LAKE AND SUPPLEMENTAL COASTAL OBSERVATIONS...

STATION/POSITION TIME  TEMP    WIND        PRES    WAVE   SWELL
                       AIR SEA DIR/SP/G            HT/PER HT/PER/DIR
                 (UTC) (F)     (DEG/KT/KT) (MB)    (FT/S) (FT/S/D)
WINYAH BAY       1245   74     220/ 11     1005.0S
LAKE MURRAY      1250   70     170/  4/  6 1003.4S
ACE BASIN NERRS  1230   76     220/  3     1005.0S
FORT PULASKI     1300   76     230/  9/ 15 1005.7
SAPELO ISLAND    1300   77     200/ 11     1006.0

$$

ANZ835-935-AMZ111-154-330-350-352-354-370-450-454-472-241400-
...C-MAN AND BUOY OBSERVATIONS...

STATION/POSITION TIME  TEMP    WIND        PRES    WAVE   SWELL
                       AIR SEA DIR/SP/G            HT/PER HT/PER/DIR
                 (UTC) (F)     (DEG/KT/KT) (MB)    (FT/S) (FT/S/D)
BUOY 41004       1310   74 76  220/ 21/ 27 1005.8
BUOY 41008       1250   78 78  200/ 17/ 19 1005.3F   4/ 6
FOLLY BEACH CMAN 1300   77     220/ 14/ 20 1005.9S
CAPERS NEARSHORE 1308   79 77  240/ 17/ 23 1005.1R
FRIPP NEARSHORE  1308   77 78  230/ 17/ 23 1004.5R


STATION/POSITION TIME  TEMP    WIND        PRES    WAVE   SWELL
                       AIR SEA DIR/SP/G            HT/PER HT/PER/DIR
                 (UTC) (F)     (DEG/KT/KT) (MB)    (FT/S) (FT/S/D)
5E ST. MARYS GA  1300      79                N/A     3/ 5
FRYING PAN BUOY  1310   77 77  230/ 19/ 25 1006.3
BUOY 41025       1250   73 74  270/ 12/ 12 1005.5R   5/ 8   3/190/ 8
CAPE LOOKOUT NC  1300   72     250/  5/  5 1005.8R
BUOY 41002       1250   77 76  200/ 21/ 27 1010.6R   9/ 7   2/140/11
BUOY 41010       1310   80 79  200/ 14/ 17 1010.1
ST AUGUSTINE FL  1300   74 77  180/ 12/ 14 1007.9F


$$




USA.gov is the U.S. government's official web portal to all federal, state and local government web resources and services.